Regional Weather Roundup
Issued by NWS

Home | Current Version | Previous Version | Graphics & Text | Print | Product List | Glossary On
Versions: 1 2 3 4 5 6 7 8 9 10 11 12 13 14 15 16 17 18 19 20 21 22 23 24 25 26 27 28 29 30 31 32 33 34 35 36 37 38 39 40 41 42 43 44 45 46 47 48 49 50
000
ASUS43 KLSX 241207
RWRMO

WEATHER SUMMARY FOR MISSOURI
NATIONAL WEATHER SERVICE SPRINGFIELD MO
700 AM CDT THU APR 24 2014

NOTE: "FAIR" INDICATES FEW OR NO CLOUDS BELOW 12,000 FEET WITH NO
       SIGNIFICANT WEATHER AND/OR OBSTRUCTIONS TO VISIBILITY.
       CURRENT SKY AND/OR WEATHER CONDITIONS ARE NOT AVAILABLE FOR
       CHILLICOTHE AND FARMINGTON.

MOZ001>031-035>038-043-044-053-054-241300-
...NORTHERN AND WESTERN MISSOURI...

CITY           SKY/WX    TMP DP  RH WIND       PRES   REMARKS
KANSAS CTY INT LGT RAIN  63  51  65 SE9       29.66R
6HR MIN TEMP:  63; 6HR MAX TEMP:  68; 6HR PCP: TRACE;

KANSAS C DTWN  LGT RAIN  66  50  56 SE7       29.66R
6HR MIN TEMP:  63; 6HR MAX TEMP:  70; 6HR PCP:  0.02;

LEE`S SUMMIT   CLOUDY    63  48  58 S6        29.67S
6HR MIN TEMP:  62; 6HR MAX TEMP:  67; 6HR PCP: TRACE;

ST JOSEPH      LGT RAIN  64  52  64 S13       29.62S
6HR MIN TEMP:  63; 6HR MAX TEMP:  68; 6HR PCP:  0.03;

CHILLICOTHE      N/A     60  43  53 SE8       29.70F
6HR MIN TEMP:  57; 6HR MAX TEMP:  62;

KIRKSVILLE     CLOUDY    53  38  56 SE8       29.77R
6HR MIN TEMP:  52; 6HR MAX TEMP:  54;


$$
MOZ066>068-077>081-088>096-101>105-241300-
...SOUTHWEST MISSOURI...

CITY           SKY/WX    TMP DP  RH WIND       PRES   REMARKS
SPRINGFIELD    MOCLDY    62  42  47 S16       29.73S
6HR MIN TEMP:  61; 6HR MAX TEMP:  64;

JOPLIN         TSTM      64  52  64 S18       29.68R
6HR MIN TEMP:  62; 6HR MAX TEMP:  68; 6HR PCP:  0.03;


$$
MOZ032>034-039>042-045>050-055>058-069>072-241300-
...CENTRAL MISSOURI...

CITY           SKY/WX    TMP DP  RH WIND       PRES   REMARKS
COLUMBIA       CLOUDY    57  37  47 SE14      29.75F
6HR MIN TEMP:  56; 6HR MAX TEMP:  58;

JEFFERSON CITY CLOUDY    59  36  42 SE12      29.76S
6HR MIN TEMP:  57; 6HR MAX TEMP:  61;

ROLLA          CLOUDY    57  34  41 SE18G26   29.77F
6HR MIN TEMP:  56; 6HR MAX TEMP:  59;

SEDALIA        CLOUDY    63  41  44 S14       29.70S
6HR MIN TEMP:  62; 6HR MAX TEMP:  66; 6HR PCP: TRACE;

WHITEMAN AFB   CLOUDY    62  37  39 S7        29.69R
OSAGE BEACH    CLOUDY    59  36  41 SE8       29.77F

$$
MOZ051-052-059>065-241300-
...EAST CENTRAL MISSOURI...

CITY           SKY/WX    TMP DP  RH WIND       PRES   REMARKS
ST LOUIS INTL  MOCLDY    55  34  45 SE16      29.88S
6HR MIN TEMP:  53; 6HR MAX TEMP:  58;

SPIRIT OF STL  MOCLDY    53  34  48 E6        29.86S
6HR MIN TEMP:  51; 6HR MAX TEMP:  57;

ST CHARLES     MOCLDY    50  37  61 E13       29.87F
6HR MIN TEMP:  47; 6HR MAX TEMP:  55;


$$
MOZ072>076-082>087-097>100-106>115-241300-
...SOUTH CENTRAL AND SOUTHEAST MISSOURI...

CITY           SKY/WX    TMP DP  RH WIND       PRES   REMARKS
CAPE GIRARDEAU MOCLDY    53  38  56 SE12      29.92S
6HR MIN TEMP:  51; 6HR MAX TEMP:  54;

FARMINGTON     MOCLDY    50  34  53 SE5       29.91S
6HR MIN TEMP:  48; 6HR MAX TEMP:  54;

POPLAR BLUFF   MOCLDY    49  41  74 CALM      29.90R
6HR MIN TEMP:  47; 6HR MAX TEMP:  55;

WEST PLAINS    MOCLDY    55  37  50 SE9       29.86S
6HR MIN TEMP:  54; 6HR MAX TEMP:  58;


$$



USA.gov is the U.S. government's official web portal to all federal, state and local government web resources and services.